Regional Weather Roundup
Issued by NWS

Home | Current Version | Previous Version | Graphics & Text | Print | Product List | Glossary On
Versions: 1 2 3 4 5 6 7 8 9 10 11 12 13 14 15 16 17 18 19 20 21 22 23 24 25 26 27 28 29 30 31 32 33 34 35 36 37 38 39 40 41 42 43 44 45 46 47 48 49 50
000
ASUS43 KLOT 022300
RWRIL

ILLINOIS REGIONAL WEATHER ROUNDUP
NATIONAL WEATHER SERVICE CHICAGO/ROMEOVILLE IL
600 PM CDT TUE SEP 02 2014

NOTE: "FAIR" INDICATES FEW OR NO CLOUDS BELOW 12,000 FEET WITH NO
SIGNIFICANT WEATHER AND/OR OBSTRUCTIONS TO VISIBILITY.

* THESE STATIONS ARE NOT UNDER NWS QUALITY CONTROL. THEY ALSO MAY NOT
  REPORT WEATHER SUCH AS PRECIPITATION OR FOG.

ILZ001-002-007-009-015-016-024-030000-
NORTHWEST ILLINOIS

CITY           SKY/WX    TMP DP  RH WIND       PRES   REMARKS
MOLINE         SUNNY     80  60  50 W10       29.90F HX  81
STERLING*      MOSUNNY   79  63  57 NW7       29.91S HX  80
$$

ILZ003-004-008-010-011-017-018-030000-
NORTH CENTRAL ILLINOIS

CITY           SKY/WX    TMP DP  RH WIND       PRES   REMARKS
ROCKFORD       MOSUNNY   79  60  52 NW10      29.91F HX  80
$$

ILZ005-006-012>014-019>023-030000-
NORTHEAST ILLINOIS

CITY           SKY/WX    TMP DP  RH WIND       PRES   REMARKS
CHICAGO-OHARE  MOSUNNY   78  54  43 W12       29.89F
CHICAGO-MIDWAY MOSUNNY   82  57  42 NW14      29.89S HX  82
AURORA         SUNNY     78  58  49 W9        29.91F
WAUKEGAN       MOSUNNY   77  57  50 VRB5      29.88F
DUPAGE AIRPORT MOSUNNY   79  58  48 W9        29.90F HX  80
WHEELING       MOSUNNY   80  56  43 W9        29.90F HX  80
NORTHERLY ISL    N/A     74  67  78 E6          N/A
$$

LMZ740>746-030000-
SOUTHERN LAKE MICHIGAN

STATION/POSITION SKY/WX   TEMP    WIND        PRES    VSBY  WAVE
                          AIR SEA DIR/SP/G                  HT/PER
                          (F)     (DEG/KT/KT) (MB)    (MI)  (FT/S)
SOUTHERN BUOY              73 73  180/  4/  4 1012.5S         0
WAUKEGAN HARBOR            78     250/  8/ 12   N/A
HARRISON CRIB              74     120/  7/  8   N/A
BURNHAM HARBOR             74      70/  4/ 10   N/A
CALUMET HARBOR             75      60/  7/  9 1011.3F
MICHIGAN CITY              73      30/  7/  8   N/A
MICHIGAN CITY 6N           74 74   70/  4/  6   N/A           0
ST. JOSEPH                 74 73   CALM  /  2   N/A           1
$$

ILZ025>027-034>036-040-047-049-050-058-095>099-030000-
WEST-CENTRAL ILLINOIS

CITY           SKY/WX    TMP DP  RH WIND       PRES   REMARKS
QUINCY         MOSUNNY   81  63  54 NW8       29.93S HX  82
MACOMB*        SUNNY     79  63  57 NW6       29.95S HX  81
$$

ILZ028>032-037-038-041>044-048-051>054-059>061-030000-
CENTRAL ILLINOIS

CITY           SKY/WX    TMP DP  RH WIND       PRES   REMARKS
DECATUR        PTSUNNY   81  68  64 W5        29.93S HX  84
PEORIA         MOSUNNY   82  63  52 VRB5      29.92S HX  83
SPRINGFIELD    PTSUNNY   82  66  58 NW6       29.92F HX  84
TAYLORVILLE    NOT AVBL
$$

ILZ033-039-045-046-055>057-062-063-030000-
EAST-CENTRAL ILLINOIS

CITY           SKY/WX    TMP DP  RH WIND       PRES   REMARKS
CHAMPAIGN      PTSUNNY   77  68  73 W7        29.92F
MATTOON        PTSUNNY   78  68  71 W5        29.92F HX  80
$$

ILZ079-100>102-030000-
SOUTHWEST ILLINOIS

CITY           SKY/WX    TMP DP  RH WIND       PRES   REMARKS
BELLEVILLE     PTSUNNY   81  70  68 NW8       29.93S HX  85
CAHOKIA*       PTSUNNY   80  67  64 NW8       29.93S HX  82
$$

ILZ064>066-069>071-074>076-080>082-084>086-088>090-092>094-030000-
SOUTH-CENTRAL ILLINOIS

CITY           SKY/WX    TMP DP  RH WIND       PRES   REMARKS
CARBONDALE     MOSUNNY   81  69  67 NW5       29.94S HX  84
MARION         CLOUDY    81  70  69 W7        29.95S HX  84
MT. VERNON     MOSUNNY   81  68  65 N5        29.94S HX  83
$$

ILZ067-068-072-073-078-083-087-091-030000-
SOUTHEAST ILLINOIS

CITY           SKY/WX    TMP DP  RH WIND       PRES   REMARKS
LAWRENCEVILLE  SUNNY     80  70  71 NW3       29.93S HX  83
ROBINSON*      SUNNY     80  71  72 NW5       29.94S HX  83
$$

ABBREVIATIONS USED IN REMARKS
   TC - TEMPERATURE IN CELSIUS
  WCI - WIND CHILL INDEX
   HX - HEAT INDEX
  VSB - VISIBILITY
$$



USA.gov is the U.S. government's official web portal to all federal, state and local government web resources and services.